Starlink 30587

operational
NORAD ID: 58064 Int'l Des: 2023-158 Owner: SPXS Country: US Constellation: starlink
LEOCIRCULAR

About Starlink 30587

Description loading...

Live Position

Loading 3D Globe...

Upcoming Passes

Altitude History

Altitude vs Time

uPlot chart will show altitude changes over time

Two-Line Element Set

1 58064U 23158P 25353.72115209 .00000824 00000-0 76098-4 0 9995
2 58064 43.0029 104.7168 0001575 280.2042 79.8623 15.02526302121506
Epoch: Dec 19, 2025 • Age: 10 hours

Current Status

Altitude 559.8 km
Velocity 7.59 km/s
Sub-Earth Point 27.31°N, 0.96°E
Launch Date Oct 13, 2023
Age 2.1 years
Type internet

Technical Details

Classification Payload
Mass 730.00 kg
Dry Mass 700.00 kg
Total Mass 730.00 kg
Length 0.30 m
Diameter 4.10 m
Span 29.00 m
Shape Box + pan
Manufacturer SPXS
Bus Type Starlink V2M
Phase Status In Orbit
Owner/State SPXS/US

Large Constellations

Loading constellations...